Temp
54 44 40 45 48 51 48 45 42 47 54 52 50 52 56 59 59 58 61 62 63 66 73 72 73 72 73 72 71 71 72 72 72 70 74 77 76 74 76 75 75 74 74 72
46 41 52 56 56 51 48 46 43 49 54 53 52 50 55 58 57 59 61 63 61 63 67 72 71 69 72 72 72 71 69 68 71 72 73 72 77 75 77 74 73 74 74 72
43 49 57 55 50 50 48 43 43 44 52 54 48 47 50 55 58 61 63 64 64 63 64 67 71 69 70 72 72 69 69 70 73 75 72 71 72 74 71 72 72 72 73 72
47 54 53 50 48 49 42 52 51 50 43 34 47 33 46 51 54 58 61 62 60 62 64 67 68 68 67 73 73 73 73 73 72 73 71 71 71 70 71 69 69 69 71 70
45 49 47 47 49 53 47 54 51 50 43 36 41 34 44 50 49 53 57 61 64 65 64 65 68 70 69 72 73 74 75 73 68 66 70 72 70 70 69 68 67 67 68 69
49 56 52 51 55 56 58 51 46 44 38 31 41 37 40 44 50 55 58 60 64 64 67 66 72 70 70 71 74 73 72 73 66 66 66 69 70 69 68 67 66 67 67 67
45 47 53 56 48 51 49 40 29 24 23 29 44 38 42 51 55 56 58 60 62 65 66 63 68 69 67 68 72 72 73 72 70 70 71 70 69 69 68 67 66 65 65 65
30 32 48 53 48 43 41 39 31 24 23 26 40 30 38 52 57 59 61 60 63 63 62 62 65 67 67 70 72 74 73 71 71 70 70 69 67 69 68 67 66 65 65 64
34 35 51 52 53 51 40 33 41 32 34 30 34 40 50 55 54 55 56 59 57 61 64 64 66 70 64 72 74 73 72 70 70 71 71 69 70 70 69 67 67 65 64 63
40 31 45 49 51 51 46 49 32 34 25 22 31 36 36 44 47 51 52 52 55 58 65 63 66 67 65 70 74 73 72 70 70 70 70 69 68 69 68 67 65 63 63 63
41 36 37 43 40 38 38 36 39 36 33 25 25 29 45 44 49 46 51 56 56 58 62 63 65 68 69 72 72 71 70 69 69 69 69 70 68 67 66 64 63 63 61 60
41 36 30 36 48 50 47 41 38 30 26 34 32 31 53 49 52 53 52 55 57 56 62 63 65 63 66 71 71 69 70 69 70 70 69 68 67 65 62 61 61 62 59 59
40 34 28 31 38 44 42 43 41 38 36 31 29 32 49 51 51 54 53 54 54 57 60 61 62 59 64 69 70 68 68 69 68 68 67 64 63 62 61 60 61 61 60 57
46 33 32 29 34 40 33 38 39 36 31 32 34 36 43 49 51 51 51 53 52 56 59 60 57 57 61 68 69 67 67 68 67 65 63 61 61 60 60 60 59 58 57 55
41 33 35 36 37 37 36 37 39 34 36 32 37 37 42 48 50 49 53 53 54 55 55 57 58 57 61 64 68 67 66 66 65 63 61 60 60 60 59 58 57 56 54 53
39 33 36 34 39 40 38 38 38 40 39 38 41 39 46 49 49 52 53 53 52 52 55 57 60 62 61 63 65 65 63 62 63 61 60 61 60 58 56 56 54 51 49 49
32 32 32 30 37 35 31 34 37 40 43 40 36 38 43 43 46 48 50 51 52 52 54 58 60 60 60 61 62 60 60 61 60 59 59 59 57 56 56 54 52 49 47 46
32 32 33 29 33 20 37 43 40 37 41 43 40 40 42 42 44 46 50 50 50 53 56 57 59 58 59 59 59 59 59 59 58 57 57 56 55 56 55 52 50 48 47 45
40 34 31 28 27 32 41 37 34 34 35 41 38 40 42 43 43 46 52 52 53 54 55 59 59 58 58 58 58 58 57 57 57 56 55 56 56 55 54 51 49 48 46 45
41 38 33 31 27 24 32 38 42 41 31 40 38 38 39 41 36 41 48 51 53 54 54 58 59 59 58 58 59 57 56 55 55 56 56 57 58 55 52 51 49 49 48 47
31 31 25 29 28 34 36 39 42 29 31 37 39 41 44 39 42 45 50 52 55 57 58 59 59 58 58 59 58 56 56 54 56 57 56 57 55 53 52 50 50 48 46 45
31 27 23 25 25 23 38 39 31 35 37 38 42 45 44 45 48 49 51 53 55 56 58 58 57 56 57 58 57 56 54 56 56 57 56 55 54 55 53 50 49 47 45 41
30 32 27 29 25 34 40 38 40 40 39 43 43 45 46 47 47 49 51 54 55 56 57 57 56 55 56 57 57 54 55 56 56 56 53 50 51 52 53 50 48 46 44 41
37 37 32 32 35 36 37 41 41 41 40 45 46 45 46 46 48 50 52 51 52 54 54 56 55 54 54 56 56 56 56 53 50 47 46 46 45 45 46 48 47 45 42 40
34 34 33 33 37 36 40 40 40 41 44 45 46 46 46 47 49 51 50 50 51 52 53 54 53 52 51 50 49 51 51 49 46 45 44 43 42 41 39 39 40 40 37 42
33 32 31 29 36 35 36 40 41 41 43 44 45 45 47 49 49 50 49 50 50 51 52 52 49 48 48 49 49 49 50 49 45 43 43 43 43 43 43 42 40 40 41 40
MSLP
1009.82 1010.80 1011.32 1011.02 1010.98 1011.07 1011.46 1011.53 1010.81 1009.93 1009.28 1008.96 1007.87 1007.09 1005.90 1004.84 1004.50 1004.14 1003.28 1003.36 1003.01 1002.31 1001.27 1001.15 1001.03 1002.23 1002.95 1003.13 1003.50 1004.18 1004.48 1005.25 1006.96 1008.72 1008.16 1008.32 1007.88 1007.76 1007.86 1008.24 1008.56 1009.20 1009.71 1010.53
1010.57 1010.55 1010.07 1010.02 1010.07 1010.35 1010.74 1010.58 1010.01 1009.28 1008.81 1008.31 1007.54 1006.64 1005.39 1004.90 1004.54 1003.87 1003.26 1002.63 1002.97 1002.28 1001.46 1001.20 1000.96 1002.24 1002.60 1002.88 1003.03 1004.53 1005.12 1005.38 1005.04 1007.26 1007.70 1008.24 1007.45 1007.37 1007.37 1008.24 1008.91 1009.31 1009.89 1010.48
1010.18 1009.62 1009.36 1009.44 1009.48 1009.60 1009.70 1009.74 1009.41 1009.10 1008.10 1007.75 1007.61 1005.96 1005.47 1004.35 1004.04 1003.64 1003.08 1002.27 1002.07 1002.04 1001.42 1001.10 1000.91 1001.52 1002.31 1002.77 1003.23 1003.58 1004.47 1005.37 1005.61 1005.95 1007.87 1007.67 1007.41 1007.58 1007.95 1008.63 1009.18 1009.79 1010.20 1010.57
1009.41 1008.99 1009.02 1008.91 1008.86 1009.13 1008.72 1008.70 1008.67 1008.61 1008.61 1008.38 1007.88 1005.84 1004.66 1004.40 1003.84 1003.39 1002.70 1002.30 1001.63 1001.39 1000.97 1000.47 1000.67 1000.81 1001.69 1001.91 1002.48 1003.23 1003.52 1004.18 1004.89 1005.78 1006.45 1007.37 1006.52 1007.39 1008.03 1009.19 1010.24 1010.65 1010.74 1011.20
1009.48 1009.07 1008.83 1008.58 1008.17 1008.23 1007.79 1008.00 1008.11 1008.26 1008.42 1008.57 1008.21 1007.20 1001.92 1004.08 1003.17 1002.50 1002.27 1001.65 1000.92 1000.52 1000.55 1000.08 1000.18 1000.05 1000.83 1001.10 1001.70 1002.33 1003.02 1003.65 1004.69 1005.81 1005.86 1006.76 1007.32 1007.60 1008.19 1009.64 1010.49 1011.50 1011.71 1011.54
1009.36 1008.93 1008.55 1007.50 1007.48 1007.50 1007.22 1007.74 1008.04 1008.18 1008.61 1008.30 1007.51 1007.15 1002.01 1003.38 1002.35 1001.57 1001.41 1001.00 1000.51 1000.01 999.65 999.58 999.35 999.54 999.96 1000.30 1000.94 1001.74 1002.27 1002.94 1003.79 1005.38 1005.92 1005.94 1007.46 1006.35 1008.53 1009.47 1010.66 1012.10 1012.57 1012.26
1010.08 1009.07 1008.11 1007.70 1007.71 1007.61 1007.63 1008.82 1009.12 1009.33 1009.15 1007.23 1006.73 1006.05 1003.10 1002.34 1001.51 1001.20 1000.76 1000.39 1000.10 999.63 999.20 999.20 998.62 999.18 999.28 999.90 1000.36 1000.99 1001.29 1002.46 1003.84 1004.99 1005.95 1005.51 1006.73 1005.62 1008.48 1009.02 1009.91 1011.80 1012.59 1013.00
1011.50 1010.01 1008.93 1008.49 1008.96 1008.71 1008.79 1009.81 1010.33 1009.33 1008.93 1007.76 1006.48 1004.68 1002.51 1001.43 1000.70 1000.37 1000.07 999.93 999.61 999.23 999.06 998.75 998.32 998.33 998.42 999.19 999.69 1000.04 1000.57 1001.84 1003.39 1004.28 1004.68 1005.52 1006.18 1007.07 1007.62 1008.69 1010.39 1012.27 1013.12 1013.37
1012.82 1011.29 1009.82 1009.05 1008.79 1008.74 1008.85 1009.61 1009.82 1009.76 1008.87 1008.15 1006.20 1003.87 1002.09 1000.83 1000.71 1000.36 1000.01 999.92 999.28 998.32 998.25 998.11 997.80 997.43 997.74 998.43 998.74 999.26 1000.07 1001.39 1002.48 1003.31 1004.36 1005.65 1006.74 1007.95 1008.52 1009.13 1009.89 1012.12 1013.37 1013.96
1013.48 1011.74 1010.18 1009.17 1008.89 1007.89 1008.03 1008.29 1009.51 1009.76 1009.02 1007.59 1005.21 1003.91 1002.20 1001.06 1000.86 1000.71 1000.19 999.98 999.28 998.18 997.68 997.54 997.29 997.37 996.54 996.77 997.66 998.35 999.49 1000.92 1002.32 1003.52 1004.04 1005.57 1006.87 1007.83 1008.67 1009.24 1009.71 1011.09 1013.67 1013.79
1013.30 1013.09 1010.93 1010.49 1009.03 1007.96 1008.06 1008.32 1008.98 1009.46 1009.21 1007.80 1005.73 1003.25 1001.40 1001.18 1000.98 1000.97 1000.66 999.81 998.94 998.11 997.32 997.06 997.11 996.95 996.53 996.67 997.64 998.11 999.40 1000.76 1002.11 1003.12 1004.76 1005.73 1007.47 1008.36 1008.94 1009.75 1011.00 1012.22 1013.68 1014.29
1013.21 1012.93 1011.51 1009.79 1007.92 1007.96 1007.92 1008.08 1009.04 1009.32 1008.64 1007.40 1005.93 1003.27 1001.24 1001.05 1000.95 1000.56 1000.66 999.98 999.01 998.02 996.65 995.49 996.80 997.43 996.67 996.22 997.20 998.16 999.39 1000.48 1001.41 1003.13 1004.81 1005.99 1007.55 1008.50 1009.56 1010.58 1012.02 1012.90 1013.97 1014.79
1013.27 1012.73 1011.56 1009.76 1008.63 1007.97 1007.90 1008.15 1008.51 1008.52 1008.32 1006.60 1005.74 1003.15 1001.55 1001.40 1000.89 1000.23 999.93 999.23 998.62 997.91 996.73 995.31 997.09 996.93 996.67 995.88 996.79 998.04 999.47 1000.80 1001.76 1003.31 1005.00 1006.73 1007.84 1008.97 1010.07 1011.53 1012.52 1013.28 1013.52 1015.39
1012.24 1012.12 1011.66 1010.59 1008.92 1008.45 1008.49 1007.85 1008.03 1008.15 1007.10 1005.32 1003.76 1003.07 1002.23 1001.34 1000.54 1000.04 999.74 998.98 998.32 997.41 996.50 996.23 997.02 996.99 996.60 995.68 996.28 997.81 999.60 1000.89 1002.20 1003.77 1005.42 1006.99 1007.87 1009.27 1010.75 1012.29 1012.94 1012.97 1014.80 1015.61
1011.47 1011.60 1011.35 1010.14 1009.38 1008.51 1008.02 1007.54 1006.92 1006.51 1005.81 1004.95 1003.02 1003.18 1002.24 1001.40 1000.26 999.74 999.16 998.64 998.05 996.84 995.97 996.02 996.67 996.42 995.87 996.07 996.21 997.52 999.65 1000.99 1002.48 1004.17 1005.77 1007.48 1008.44 1009.80 1011.71 1013.10 1013.62 1014.53 1015.23 1016.03
1011.69 1011.37 1010.88 1009.41 1008.67 1007.89 1007.29 1007.39 1006.40 1005.28 1004.76 1003.87 1003.02 1003.06 1003.00 1000.95 1000.05 999.44 999.07 998.56 998.00 997.12 995.49 995.97 995.70 995.17 995.47 996.36 996.93 998.75 1000.53 1001.76 1003.04 1004.53 1006.26 1008.00 1009.34 1010.47 1012.16 1013.92 1015.28 1014.29 1015.93 1017.95
1012.27 1012.14 1011.47 1009.07 1008.27 1007.42 1007.34 1007.18 1006.63 1005.78 1004.67 1003.99 1003.59 1003.72 1003.18 1001.88 1000.90 1000.50 999.41 998.04 997.46 996.92 995.98 995.47 995.50 995.16 996.00 997.11 998.12 1000.42 1001.95 1003.21 1004.16 1005.60 1006.98 1008.70 1009.97 1011.30 1013.06 1015.06 1014.92 1016.17 1017.51 1018.44
1012.24 1012.16 1011.34 1009.72 1008.54 1007.55 1006.70 1006.86 1007.08 1006.32 1004.83 1004.78 1004.72 1004.63 1004.10 1003.27 1002.25 1001.34 1000.02 999.07 998.16 997.23 997.04 996.47 996.16 996.54 997.30 998.70 1000.06 1002.31 1003.16 1004.87 1005.37 1006.69 1008.47 1008.25 1009.26 1012.26 1015.24 1015.30 1016.31 1017.93 1017.97 1018.99
1011.50 1011.75 1011.10 1010.19 1009.22 1007.43 1006.74 1007.59 1007.80 1007.06 1005.18 1005.33 1005.24 1004.46 1004.12 1003.17 1002.11 1000.53 999.69 999.06 998.43 998.33 996.40 996.79 996.88 997.24 998.80 999.96 1001.60 1003.51 1004.33 1005.16 1006.54 1007.94 1009.15 1009.53 1012.15 1014.26 1014.83 1016.88 1017.82 1018.48 1018.78 1019.68
1011.62 1011.48 1011.72 1010.71 1009.85 1008.55 1008.50 1008.24 1007.37 1006.78 1006.11 1005.43 1005.37 1004.24 1003.30 1003.18 1002.36 1000.38 999.25 998.39 998.19 997.81 997.63 997.47 997.82 998.29 999.38 1001.30 1001.84 1003.45 1005.56 1005.28 1007.42 1009.02 1010.29 1012.66 1013.45 1013.69 1016.06 1017.94 1018.35 1019.19 1019.46 1020.56
1011.97 1011.73 1011.85 1011.20 1010.38 1009.02 1009.25 1008.63 1007.20 1007.50 1007.77 1006.51 1005.07 1003.66 1002.19 1002.72 1001.45 1000.06 998.81 997.83 997.28 996.09 997.01 998.14 998.96 999.66 1001.26 1002.17 1003.04 1004.30 1005.64 1007.65 1009.10 1009.62 1010.91 1013.54 1013.47 1015.99 1018.12 1017.78 1018.62 1019.65 1020.56 1021.54
1012.88 1012.96 1012.59 1012.14 1011.15 1010.20 1009.78 1009.26 1009.72 1009.72 1008.16 1007.06 1005.18 1003.58 1002.17 1002.01 1001.14 1000.07 998.83 997.90 997.25 997.76 997.51 999.05 1000.23 1001.27 1002.71 1003.45 1003.60 1005.35 1007.29 1007.99 1009.21 1011.28 1013.19 1014.45 1015.92 1017.09 1017.85 1018.82 1020.19 1020.70 1021.17 1022.09
1013.12 1013.47 1013.49 1013.06 1011.33 1010.49 1010.51 1010.58 1010.25 1009.51 1008.16 1006.51 1004.95 1003.96 1002.97 1002.03 1000.92 999.87 998.69 998.02 998.26 997.08 998.90 1000.24 1000.97 1001.65 1004.34 1005.42 1005.36 1006.80 1008.27 1008.77 1010.57 1012.52 1014.72 1016.36 1017.18 1017.83 1018.68 1019.30 1020.20 1021.50 1022.60 1023.22
1013.04 1013.36 1013.41 1013.00 1011.31 1011.16 1010.93 1010.55 1010.21 1009.05 1008.06 1006.59 1005.42 1004.25 1003.19 1002.32 1001.17 1000.16 999.89 1000.07 1000.28 1000.37 1000.79 1001.52 1002.32 1003.61 1005.17 1005.93 1006.76 1008.23 1009.29 1010.67 1012.12 1014.06 1015.59 1016.61 1017.89 1018.85 1019.63 1020.24 1021.47 1022.61 1023.30 1023.44
1013.43 1013.69 1013.23 1012.26 1011.54 1011.36 1010.63 1010.55 1010.22 1008.81 1007.71 1006.39 1005.90 1004.81 1003.66 1002.58 1001.54 1001.18 1001.39 1002.05 1002.20 1001.31 1001.67 1002.87 1003.57 1005.03 1006.74 1007.95 1009.31 1010.40 1011.40 1012.33 1013.75 1014.87 1016.44 1018.02 1018.81 1019.82 1021.19 1022.52 1023.13 1023.49 1023.73 1023.95
1013.33 1013.43 1013.42 1012.42 1012.19 1012.26 1011.26 1010.73 1010.20 1009.05 1007.98 1006.92 1006.28 1005.26 1004.31 1003.38 1002.77 1002.53 1002.68 1002.78 1003.52 1002.95 1003.29 1004.70 1005.80 1007.14 1008.76 1009.42 1010.75 1011.96 1013.15 1013.72 1014.47 1016.34 1018.07 1019.36 1020.42 1021.43 1022.30 1022.99 1023.97 1024.36 1024.81 1025.00
Wind_Speed
8 1 7 13 12 13 9 13 14 16 16 10 15 17 15 9 6 10 15 9 10 13 17 8 6 7 15 14 13 12 15 13 9 5 4 7 9 6 6 4 6 6 5 7
4 7 15 13 16 12 11 16 19 20 16 13 14 14 12 9 8 10 13 15 9 9 11 10 8 8 16 20 17 14 13 17 14 7 6 5 7 4 6 4 4 6 7 7
6 9 8 4 7 9 14 16 16 15 19 15 7 19 10 6 6 11 14 15 11 10 11 9 9 8 12 18 20 18 12 13 16 17 5 1 3 5 4 4 5 4 7 8
7 4 6 10 12 7 14 8 12 13 6 5 4 17 21 11 12 14 16 14 13 10 9 9 7 7 14 16 21 20 18 17 9 11 8 4 5 6 4 5 5 6 8 10
9 8 8 12 17 14 17 14 17 17 13 3 5 9 23 8 12 12 11 15 17 15 10 12 9 10 9 15 17 18 20 20 14 12 10 13 6 8 10 8 11 8 7 9
9 4 6 14 10 11 14 13 7 6 2 12 14 11 16 10 18 16 12 13 15 15 14 11 14 9 6 13 16 18 20 21 18 16 14 9 10 16 14 11 10 5 5 6
7 4 3 5 8 7 13 6 3 4 1 12 13 13 19 9 11 12 16 13 12 14 14 9 15 10 5 12 16 17 22 20 22 23 22 18 14 12 17 14 13 10 7 6
4 8 5 8 9 5 2 5 3 5 4 5 3 9 8 12 13 15 16 10 16 17 9 9 11 9 6 14 17 20 20 18 19 20 17 15 13 8 12 14 10 4 5 6
6 6 15 22 11 7 4 5 7 6 3 7 6 7 9 15 8 6 8 7 11 16 15 11 10 13 9 13 19 21 19 17 18 20 17 16 14 12 11 16 15 9 7 6
2 14 11 9 7 12 13 8 4 3 4 6 4 6 9 4 4 6 11 9 11 9 14 7 7 9 10 12 18 19 19 21 20 19 17 15 13 13 13 14 17 17 9 11
4 6 6 6 6 5 3 2 1 3 4 4 4 6 8 4 1 5 9 13 10 12 8 7 4 6 15 17 16 16 18 21 20 22 19 18 12 15 14 13 15 14 12 10
3 5 7 11 19 13 11 8 7 4 4 5 4 6 10 3 4 1 12 13 9 6 8 7 8 7 11 16 16 15 15 22 23 22 20 18 17 16 16 15 15 15 12 9
5 4 5 7 3 4 3 6 7 6 4 10 11 5 2 4 9 2 10 7 7 8 10 8 7 7 9 15 16 15 18 19 22 22 21 17 18 17 17 17 15 16 15 8
8 4 8 10 14 6 11 17 15 11 6 8 15 12 13 10 13 8 9 6 9 9 6 5 8 7 11 13 14 16 17 21 21 21 20 18 18 19 17 15 15 17 14 13
8 5 8 16 19 20 20 21 20 16 17 15 17 13 14 15 16 7 7 6 11 9 8 9 13 9 12 9 13 17 17 18 20 20 21 19 20 20 18 15 15 16 15 14
2 4 4 13 17 15 15 11 15 6 16 19 21 18 9 14 6 4 5 7 9 8 14 9 7 13 12 11 15 19 18 19 21 23 22 22 20 21 19 15 14 17 17 11
2 3 3 7 9 14 3 7 10 13 12 7 5 3 6 9 11 6 9 10 12 11 14 6 10 18 17 18 21 20 19 19 22 22 22 22 21 19 18 16 17 17 14 12
4 3 3 6 9 3 5 10 9 14 18 11 12 13 12 14 14 15 6 8 12 6 8 9 15 20 23 23 25 19 24 20 25 24 21 21 25 19 15 17 18 13 13 12
5 1 4 3 3 7 4 7 13 8 9 3 15 17 15 16 13 6 7 6 5 7 1 10 20 26 26 27 27 23 18 23 21 25 23 21 19 18 19 18 15 14 14 12
6 6 3 3 4 4 4 16 17 11 5 16 22 21 18 11 5 6 8 8 7 9 9 9 22 27 26 22 25 29 23 23 20 17 21 18 19 19 19 16 16 13 13 12
6 3 3 4 4 1 8 18 19 3 8 23 23 24 18 5 6 8 12 10 5 10 20 21 24 25 23 23 24 24 25 23 20 19 20 16 19 18 15 18 14 13 13 11
3 4 3 4 4 5 12 6 5 9 17 21 20 15 11 1 7 7 8 1 13 15 25 23 22 22 20 20 23 24 22 23 23 21 20 19 17 14 15 17 13 12 12 12
3 3 3 4 7 3 5 8 9 13 17 12 14 12 8 5 5 5 4 13 11 16 20 19 21 26 18 19 23 23 20 23 23 22 19 15 15 13 14 15 13 10 9 8
1 2 4 4 1 5 12 7 11 16 17 12 11 9 8 4 4 12 16 16 13 14 22 21 23 24 22 20 22 22 21 21 21 20 18 16 15 14 12 9 8 8 8 8
2 3 4 9 9 11 3 12 14 18 14 12 12 8 8 7 10 18 17 18 10 15 22 21 23 22 22 21 20 20 20 21 20 19 17 15 13 14 12 9 6 8 5 7
3 3 3 4 6 4 10 11 17 16 9 11 10 10 9 8 13 18 19 15 13 16 21 19 21 22 20 21 21 19 18 19 21 19 14 12 12 12 12 13 13 17 12 11
Wind_Direction
264 84 252 246 213 232 249 270 276 278 276 294 282 279 264 255 263 283 293 290 283 269 267 267 265 138 152 168 164 153 143 151 124 176 207 205 187 163 161 152 160 149 143 108
339 244 245 252 255 233 237 257 268 273 273 276 285 266 262 261 242 247 262 277 257 274 285 271 265 131 160 168 178 155 168 162 147 202 224 206 181 155 146 123 130 128 120 124
231 249 289 318 326 296 243 242 258 262 283 273 297 281 284 263 258 270 268 262 263 244 267 270 264 155 178 171 175 172 178 182 185 177 191 234 68 63 71 106 93 90 107 117
237 257 314 301 287 268 278 240 259 279 315 264 109 285 269 271 254 255 263 264 273 264 263 263 257 244 170 187 180 187 170 172 162 155 162 189 205 138 107 82 84 82 102 102
249 294 286 283 269 266 267 268 268 267 265 272 218 268 271 203 251 245 253 262 267 266 251 263 251 247 183 173 180 182 181 173 166 164 188 191 193 126 108 103 96 80 80 96
277 244 247 251 279 289 264 274 310 281 179 253 241 222 271 220 241 252 240 241 249 257 257 245 252 240 217 175 174 172 177 180 166 157 173 216 148 133 123 124 108 100 89 92
299 261 271 59 1 339 29 29 277 303 217 252 213 235 243 269 264 250 249 247 250 247 252 234 258 239 211 179 174 173 174 174 169 174 181 170 152 123 135 126 123 143 133 131
13 326 17 3 336 277 218 172 252 235 216 265 240 236 245 232 249 248 254 247 257 252 241 228 247 237 203 187 182 179 175 169 155 156 157 158 151 147 137 129 106 134 126 133
303 247 320 309 304 272 166 191 153 294 248 252 214 279 298 266 267 273 260 276 280 249 241 237 236 250 226 192 195 184 169 151 158 153 146 154 153 150 150 134 131 127 134 137
227 293 256 293 316 274 231 185 229 205 246 242 254 241 244 16 12 329 323 311 293 283 243 210 244 230 232 216 199 176 163 148 149 152 136 143 153 136 160 147 133 124 139 122
202 225 274 342 228 248 337 352 231 215 222 246 290 249 191 183 259 306 307 307 302 287 240 140 7 263 226 197 190 171 156 140 142 141 145 147 152 141 128 119 118 121 123 123
164 259 259 243 276 283 249 246 181 243 246 254 274 248 270 69 326 296 248 282 287 307 265 103 342 335 233 184 176 168 150 141 142 141 146 142 140 133 125 121 124 123 120 113
185 236 281 305 351 8 201 206 218 231 243 236 254 239 221 293 282 230 266 279 297 274 291 51 326 350 240 186 171 150 142 143 136 138 139 138 134 133 125 123 129 127 109 102
214 222 216 259 265 267 277 275 275 255 242 261 246 280 295 295 295 290 279 277 285 257 284 23 312 284 245 200 159 140 134 140 135 132 130 131 126 122 119 125 117 100 101 101
165 251 222 253 269 275 273 279 288 251 252 254 271 272 278 286 279 249 243 264 281 283 325 323 293 251 211 174 141 125 131 129 127 122 120 123 117 114 109 104 96 102 96 83
176 253 262 273 262 270 287 287 298 297 251 253 258 267 338 285 277 236 294 272 289 328 320 314 224 141 110 119 117 116 120 121 125 122 120 120 117 114 103 104 108 91 84 89
45 313 282 270 331 306 187 359 326 317 304 327 306 1 326 326 325 320 311 335 319 314 314 303 133 114 107 107 110 112 109 114 115 114 116 115 110 104 107 109 94 89 95 87
148 236 237 289 309 347 155 38 334 310 285 1 357 345 331 321 309 299 276 290 275 274 277 186 117 105 103 106 99 104 105 110 107 103 106 110 95 109 112 103 94 101 91 88
193 211 286 275 268 270 160 19 334 337 302 4 342 328 312 307 314 276 237 263 275 213 136 130 125 111 109 108 105 100 105 107 102 109 106 100 119 121 109 106 109 102 95 88
272 219 247 293 270 277 17 334 320 300 256 1 334 314 299 306 324 259 325 310 278 207 137 136 119 110 109 115 116 109 114 93 105 105 108 121 124 108 106 119 108 106 96 93
315 326 227 284 278 250 6 336 314 4 322 325 312 303 303 241 239 295 298 295 214 106 128 129 117 114 116 118 118 117 115 114 113 109 110 109 97 113 129 106 101 103 101 98
283 318 304 319 280 296 17 354 24 305 297 298 299 311 329 10 259 283 282 285 100 136 124 119 119 113 108 112 111 111 112 117 113 112 110 110 117 117 108 112 115 105 98 89
265 220 263 205 241 312 349 301 318 308 305 313 305 321 333 357 321 307 21 69 98 118 113 114 113 105 108 118 113 107 116 111 112 110 106 106 100 103 114 114 108 100 102 107
242 152 249 316 290 316 314 324 326 320 314 314 323 332 341 349 328 88 79 73 83 107 110 111 108 107 108 104 106 112 106 104 103 103 99 91 92 91 84 88 95 107 110 99
230 317 256 265 288 323 186 333 332 316 321 335 339 338 359 8 55 86 85 78 91 103 105 104 101 100 98 98 97 104 107 108 103 96 94 94 90 90 86 72 96 98 64 105
197 238 254 273 330 267 283 319 322 314 342 332 346 1 28 70 79 97 78 82 84 91 99 99 92 97 97 98 99 101 105 107 106 103 101 105 107 104 104 103 97 63 88 85